Theta_e
362 364 358 353 353 359 348 344 341 340 348 354 357 356 353 353 354 355 356 361 359 360 362 362 361 359 358 359 361 358 357 356 356 357 355 354 355 354 354 351 352 351 351
363 361 356 354 352 354 354 349 346 342 342 343 355 355 357 357 357 355 353 356 359 360 362 364 363 360 357 354 359 360 358 357 358 358 357 357 356 354 354 354 352 353 354
363 360 355 351 353 355 348 341 345 339 338 338 351 354 356 356 356 358 356 357 358 361 359 361 363 362 361 356 359 359 359 358 359 358 356 356 356 355 355 354 354 354 354
364 362 357 358 357 354 347 341 337 338 338 338 347 350 352 354 355 357 359 357 357 354 358 360 360 360 361 359 358 357 359 357 357 357 357 356 356 356 355 355 355 354 353
362 360 356 357 361 354 347 344 340 342 344 347 349 347 350 351 354 355 356 356 356 356 356 357 359 357 361 358 352 355 353 355 356 357 357 357 355 355 353 355 355 353 353
362 360 359 358 355 358 354 352 350 349 347 345 346 344 351 351 354 354 354 357 357 358 355 355 353 353 358 357 356 354 354 353 355 358 357 357 356 355 353 352 352 351 352
358 360 358 356 356 354 353 353 350 343 341 345 344 347 351 353 350 350 355 353 353 354 356 353 355 351 353 355 355 355 356 355 355 356 358 356 356 354 354 352 351 351 350
359 361 358 354 353 350 349 350 349 344 345 349 344 344 335 338 343 349 351 352 352 354 355 356 355 351 350 348 350 355 356 357 357 358 357 356 355 353 353 352 351 350 350
359 359 356 357 353 353 349 349 348 345 341 343 349 341 334 329 337 346 348 351 351 354 355 356 354 352 352 352 352 354 356 353 356 359 357 356 353 352 352 350 349 347 349
358 356 355 355 354 353 351 350 350 349 347 342 346 344 344 344 334 331 343 347 351 353 353 354 353 352 354 352 355 354 353 352 355 356 357 356 355 353 352 350 350 349 347
356 352 354 354 353 353 352 350 349 347 347 343 343 341 340 342 344 337 333 339 349 350 351 351 351 350 351 351 353 353 352 353 352 354 355 356 355 354 354 353 352 352 351
354 353 353 353 354 352 351 350 351 350 344 344 346 343 340 337 338 337 336 338 337 342 347 349 349 348 350 351 351 349 352 352 352 350 349 352 353 354 355 355 354 353 353
348 351 353 352 351 353 352 352 350 349 346 344 345 344 341 341 342 340 340 337 335 341 342 345 346 345 349 349 350 347 346 343 343 342 343 345 345 347 349 351 352 353 353
350 351 351 351 351 351 353 355 353 354 353 349 347 347 345 345 346 343 340 336 334 336 340 339 348 347 346 345 346 342 338 339 338 337 337 337 338 339 341 343 344 346 348
348 349 348 349 349 351 352 353 349 349 352 349 349 348 347 345 346 345 345 344 338 330 331 340 342 345 341 339 340 335 333 335 334 333 333 334 335 337 339 341 341 340 340
349 348 345 346 348 349 350 351 348 345 343 343 346 347 342 343 346 347 345 344 344 338 331 340 340 340 337 334 334 331 330 331 332 330 329 329 329 330 331 332 333 334 336
347 345 344 343 342 343 347 347 344 346 344 344 344 344 344 346 345 345 347 345 342 340 335 338 340 335 328 327 326 326 326 324 326 327 326 325 324 325 326 327 327 328 329
346 344 343 344 345 342 341 341 339 339 338 337 336 340 339 342 341 343 344 343 342 341 337 333 337 324 323 325 323 321 322 323 322 324 323 322 320 319 318 318 318 318 319
344 343 342 343 340 339 338 338 337 334 333 332 333 332 332 335 333 334 337 338 338 339 338 335 327 325 323 323 320 320 318 318 321 323 321 321 320 319 317 316 314 312 310
342 343 342 341 341 339 336 335 335 333 331 329 329 328 329 330 332 333 334 334 334 333 331 327 324 324 323 323 322 317 314 316 316 319 319 317 317 318 317 316 314 313 309
340 342 342 339 338 334 328 333 333 332 331 328 328 327 325 325 325 328 330 331 332 330 328 323 321 321 320 320 319 318 314 313 313 316 313 313 313 311 310 312 312 311 309
339 342 340 336 332 328 320 323 331 331 330 329 327 329 328 325 322 323 324 324 327 330 325 323 321 319 319 320 321 317 314 314 310 318 314 311 314 310 311 310 311 310 310
338 339 337 335 330 326 317 319 323 332 330 330 330 329 326 323 326 324 322 321 320 323 325 324 320 321 319 320 321 318 318 317 313 315 313 309 313 309 313 312 311 310 310
333 333 335 334 328 319 316 314 317 330 328 326 324 327 326 321 317 321 316 311 309 310 316 318 318 319 316 323 324 322 320 316 316 316 319 308 310 308 311 313 311 309 308
335 335 334 333 329 321 311 310 320 329 326 324 320 315 323 320 313 313 319 315 312 309 308 310 311 311 311 313 316 321 318 316 314 315 317 314 311 308 309 310 311 311 308
332 332 329 327 320 320 308 307 313 331 325 320 321 317 310 309 308 309 327 324 320 320 318 314 313 312 316 314 317 318 313 312 313 312 317 313 312 311 307 312 312 310 308
Wind_Speed
4 1 2 4 3 4 3 3 7 7 15 7 6 8 6 5 5 2 5 18 19 18 17 17 16 16 13 11 12 13 13 12 11 10 11 10 10 10 10 10 8 9 9
3 2 2 2 2 1 4 3 8 6 11 17 9 9 6 6 6 4 3 9 18 17 17 17 18 17 16 13 12 11 13 14 13 13 12 12 12 11 11 11 12 10 10
5 5 4 6 5 3 6 1 6 6 11 14 15 8 6 7 7 6 6 2 8 18 19 18 18 17 17 14 14 12 11 13 13 13 13 13 12 11 11 12 12 12 11
6 4 6 5 6 6 5 5 5 6 9 13 8 8 7 6 9 8 5 4 5 8 14 19 19 18 18 17 13 12 12 13 13 13 14 14 14 13 14 14 14 12 13
5 6 6 6 4 5 7 7 8 7 6 9 8 3 9 6 6 8 8 7 7 4 4 15 20 19 20 21 17 14 12 14 15 15 15 17 16 16 16 16 16 15 14
4 5 5 7 4 4 5 6 8 7 7 9 9 6 7 6 6 4 7 6 5 4 6 7 9 11 20 20 18 18 18 19 17 17 17 18 16 16 15 15 15 15 14
8 4 4 7 6 5 8 8 5 3 4 10 4 3 2 6 9 9 6 5 7 7 6 7 6 6 8 18 18 20 21 23 21 19 18 18 18 16 15 15 13 15 17
6 4 5 5 7 7 9 8 6 6 7 7 2 0 3 6 8 11 6 5 6 7 8 7 7 9 7 8 15 24 23 22 21 19 19 18 19 18 17 15 13 14 16
4 2 5 4 5 5 7 8 6 8 6 4 5 4 4 4 4 2 6 3 6 4 4 5 7 10 13 10 14 18 23 22 23 22 21 19 21 20 19 17 17 17 16
4 4 6 5 5 4 6 7 5 7 5 5 1 4 6 3 3 0 2 5 4 5 6 4 5 7 7 5 14 15 17 21 24 24 23 22 21 21 21 20 20 20 20
3 5 4 5 5 4 5 6 7 7 5 5 3 2 3 4 5 4 1 2 2 4 5 5 6 3 4 9 6 7 20 21 22 21 19 19 19 19 20 22 21 21 21
4 7 7 6 5 5 5 5 5 7 6 5 3 4 3 3 3 3 3 2 2 2 3 1 3 1 5 3 4 7 18 18 20 11 7 8 10 11 16 19 20 21 21
6 6 7 6 6 4 4 4 4 5 4 4 6 4 4 5 3 2 2 3 4 1 1 3 3 2 6 6 7 16 9 11 10 9 5 4 7 6 8 9 14 19 21
6 8 7 7 9 6 2 2 2 2 3 3 5 4 3 5 3 4 4 4 2 2 3 2 5 7 8 5 12 17 7 10 10 9 9 7 6 6 6 6 8 9 12
6 8 10 9 9 8 6 4 1 2 2 4 5 5 4 5 4 6 4 3 3 2 3 2 3 7 7 8 13 10 9 14 15 13 11 9 9 8 7 7 7 8 6
7 8 9 10 9 10 9 7 5 4 4 3 1 3 4 4 4 4 3 1 2 2 2 2 4 4 7 8 13 10 11 14 17 14 14 14 15 15 15 16 15 15 13
6 7 7 6 9 10 10 9 10 9 9 8 7 6 6 5 2 3 3 2 1 2 2 1 3 5 7 8 8 8 9 9 9 19 19 18 18 17 18 17 17 18 19
6 5 6 7 9 9 10 11 11 10 10 9 9 10 10 7 9 7 4 5 4 4 1 4 2 5 6 5 7 8 7 7 9 20 21 21 21 21 21 20 20 19 19
6 6 7 8 10 10 9 9 9 9 9 9 9 10 10 9 7 6 5 5 5 4 4 4 3 3 3 3 5 6 8 8 6 16 18 21 21 21 21 21 21 20 18
6 7 5 5 8 10 8 7 8 8 8 9 10 10 9 8 7 6 5 5 5 5 6 6 5 4 3 2 2 4 5 5 5 6 13 14 16 19 18 18 18 17 16
6 5 5 7 8 9 8 6 6 7 7 9 9 8 8 10 12 9 4 6 5 5 5 6 4 3 2 2 2 3 3 4 5 3 5 5 5 5 7 11 12 14 14
4 6 5 9 9 7 12 15 7 6 5 5 5 6 6 10 11 12 14 15 10 4 5 4 3 4 4 2 2 3 3 2 2 2 3 5 4 5 4 4 11 12 12
5 6 6 8 7 7 11 12 14 5 5 5 5 4 7 8 5 7 10 13 15 13 12 7 6 4 4 2 3 3 2 3 3 4 4 3 2 3 2 3 6 8 9
5 5 5 7 7 6 12 13 14 6 7 10 9 6 7 8 7 6 9 9 10 10 8 7 6 6 4 3 3 2 4 6 3 2 3 2 1 1 1 2 5 5 5
4 5 5 6 8 7 12 10 8 8 8 8 8 10 7 7 11 10 7 7 6 6 6 8 7 6 6 8 5 3 3 4 3 3 4 3 3 3 3 4 5 9 7
5 6 8 8 11 6 12 11 9 2 7 6 6 6 13 8 10 12 3 4 4 3 5 4 2 2 3 5 10 6 6 4 3 4 2 1 4 4 3 4 4 4 4
Wind_Direction
256 204 36 11 348 118 117 131 76 7 302 205 227 245 194 235 251 285 146 176 185 184 174 180 194 200 200 203 204 198 206 210 211 217 218 221 224 213 215 216 216 207 214
212 239 195 259 272 280 114 138 122 111 311 307 224 225 215 202 217 213 219 177 187 186 182 183 194 202 199 209 214 211 211 214 214 215 222 226 224 221 218 226 218 223 218
223 192 199 229 223 169 118 248 114 98 256 267 244 210 218 211 205 205 218 235 195 192 190 189 194 197 204 205 211 210 223 232 222 216 220 230 226 222 220 229 232 228 216
209 226 233 238 201 162 145 162 195 146 230 252 242 200 196 213 211 203 193 199 240 203 202 195 195 200 200 207 205 218 220 229 236 229 215 223 223 222 219 223 228 229 228
199 219 249 249 199 186 171 192 195 195 219 250 241 119 260 175 235 195 189 200 237 229 187 206 200 202 202 204 209 209 224 239 232 233 226 223 226 223 225 219 226 227 228
223 252 259 276 279 262 243 225 218 210 220 231 247 220 185 191 215 229 196 189 204 241 226 186 203 210 200 202 211 214 223 236 238 231 229 226 226 225 228 228 229 229 229
285 274 270 276 274 240 251 252 240 183 296 272 230 340 240 193 200 215 181 186 200 215 232 222 185 194 199 206 221 222 223 233 233 232 231 228 224 223 224 227 229 228 223
264 255 255 265 270 272 258 248 246 205 230 237 236 194 272 266 230 200 193 174 219 193 215 206 169 178 199 218 226 228 225 229 236 231 235 224 224 224 224 220 225 234 231
277 297 274 273 262 256 267 266 249 221 224 247 217 190 242 245 335 130 158 198 222 205 217 213 193 193 206 204 219 231 234 235 233 232 233 228 225 223 224 224 224 230 232
235 266 276 287 276 265 264 263 255 231 206 216 212 247 270 272 324 169 182 226 225 189 202 221 201 211 211 225 221 229 236 234 229 231 233 234 227 222 223 225 227 227 231
60 333 336 321 301 281 267 264 261 237 209 215 181 165 264 297 205 216 249 265 183 230 226 209 206 226 208 216 220 256 235 234 228 226 230 239 235 229 228 227 230 232 231
74 11 344 340 307 295 279 267 259 253 217 212 201 212 214 246 254 182 199 256 285 227 103 53 105 34 290 306 141 218 321 252 239 224 232 244 255 253 246 242 240 240 239
18 358 349 331 331 307 280 255 261 247 196 185 209 201 230 240 251 262 161 243 239 29 132 164 190 207 194 122 133 109 96 31 38 30 31 331 296 291 286 276 262 252 248
10 4 352 352 341 343 324 314 263 162 159 203 198 224 244 247 245 227 189 188 263 262 226 285 73 59 75 59 92 92 77 56 59 58 54 44 22 0 332 315 306 304 266
8 11 0 360 0 357 345 352 300 283 178 220 209 212 223 256 264 277 186 163 174 213 241 65 61 64 77 62 61 69 62 55 56 56 59 57 52 47 44 46 38 33 15
26 24 9 7 14 13 21 31 22 20 354 350 58 219 230 235 263 312 325 349 191 198 271 70 53 68 72 76 68 64 57 50 52 61 68 69 68 67 67 68 67 67 66
41 36 17 21 33 22 33 37 45 34 48 41 29 33 28 1 345 352 352 325 229 202 233 126 78 58 47 65 69 72 64 58 54 61 57 58 62 66 71 70 74 76 74
48 53 29 33 49 46 40 41 40 37 38 42 35 42 31 40 37 27 34 36 18 360 316 254 91 56 60 50 73 71 61 65 62 65 65 64 64 63 63 66 68 68 70
75 57 39 45 60 52 42 47 61 58 48 39 41 42 32 41 48 37 34 38 48 44 41 39 66 67 83 59 69 66 70 60 59 63 62 64 64 62 60 60 61 59 57
74 70 48 68 70 66 53 55 57 65 62 56 51 44 40 31 36 44 47 59 72 72 72 79 75 70 75 81 69 79 62 46 57 49 59 60 57 57 61 63 65 66 67
77 75 76 63 68 61 44 38 71 67 73 67 65 64 52 53 52 44 42 33 53 71 66 81 72 66 68 98 76 86 93 83 50 64 69 54 58 55 50 56 66 73 75
88 84 81 72 71 62 17 26 35 84 63 78 81 90 115 76 59 61 62 55 45 81 97 98 111 95 69 57 114 106 137 182 116 206 82 64 50 62 53 43 71 74 75
106 98 60 79 81 77 33 21 12 91 80 73 61 93 82 50 63 83 54 44 38 42 61 75 77 66 91 38 111 145 121 80 102 131 119 85 61 58 36 84 80 83 85
125 114 106 96 93 59 36 21 351 85 71 53 33 64 80 60 26 65 78 65 53 46 39 60 56 57 50 33 109 132 131 112 113 163 172 103 181 126 158 130 107 107 112
136 126 111 96 98 67 28 19 13 99 80 76 59 32 54 42 359 2 109 112 109 105 69 84 106 114 85 60 15 190 193 203 142 149 204 134 188 159 194 173 172 183 173
127 105 85 73 66 59 26 13 7 142 130 118 103 73 50 30 7 12 119 109 79 109 124 158 188 236 156 74 40 39 4 349 115 132 48 211 172 170 183 174 161 178 185